OBJECT C, 52718

Orbit data source: Space-Track

You're viewing an Uncataloged Satellite

Recently launched and/or uncataloged satellites may have evolving metadata. Metadata may include but not limited to: Owner, Maufacturer, Bus, Motor, and Mission.

OBJECT C, 52718 is a satellite owned by Changguang WJ (CN) in LEO that was launched on Fri, 20 May 2022 UTC via a CHANG ZHENG 2C/YZ-1S launch vehicle from the Jiuquan Satellite Launch Center, China (JSC). Unknown objects in Earth's orbit typically refer to objects detected orbiting the Earth but have not yet been identified or cataloged. These objects could be anything from previously untracked satellites, spent rocket stages, debris from satellite collisions, or even natural meteoroids temporarily captured by Earth's gravity.

Loading next visibility...
Identifier
52718, 2022-056C
Orbit
LEO
Country
Flag of CNCN / PRC
Related business
Manufacturer
Changguang WJ
Mission
Non-operational Commercial Communications
Bus & Motor
Unknown
Mass
~300 kg wet, ~300 kg dry
Launch date (UTC)
2022-05-20 (4 years ago)
Launch vehicle
CHANG ZHENG 2C/YZ-1S
Launch site
Jiuquan Satellite Launch Center, China (JSC)
Object type
Unknown
Shape & HBR
Box + 2 Pan, 1.3 m
Radar Cross Section
2.320 m², Large (>1 m²)

Expand to show TLE details & history
Last TLE update: 21 hours ago

TLE from 21 hours ago
0 OBJECT C
1 52718U 22056C   26172.56946522  .00000222  00000-0  12771-3 0  9992
2 52718  86.0036  21.7353 0015876  14.2180 345.9443 14.04380300209503
Epoch: 2026-06-21T13:40Z
TLE epoch observation values (Epoch: 2026-06-21T13:40:01.795Z)
Latitude
0.00009°
Longitude
-93.04002°
Altitude
870.492 km
Speed
7.423 km/s
True Right ascension
01h 26m 56s
True Declination
0° 00' 00"
Sunlit
Object was in daylight at epoch
Visualization orbit readout
Latitude
Unknown
Longitude
Unknown
Altitude
Unknown
Speed
Unknown
Apparent Right ascension
Unknown
Apparent Declination
Unknown
Sunlit
N/A
Visualization observer readout
Local Sidereal Time
21:55:33
Azimuth
Unknown
Elevation
Unknown
Doppler factor
Unknown
Orbital elements
Apogee altitude
887.198 km
Perigee altitude
864.165 km
Semi-major axis
7,253.818 km
Eccentricity
0.00159
Inclination
86.0036°
RAAN
21.7353°
Arg. of periapsis
14.218°
True anomaly
345.90003°
Mean anomaly
345.9443°
Eccentric anomaly
345.92217°
Mean motion
3.51312 °/min
Orbital period
102.47 mins
BSTAR
0.00012771
Loading maneuver chart data...
Computing Atmospheric mass density...
Loading historical data...
Loading historical data...
Loading historical data...
Loading historical data...
Loading historical data...
Loading historical data...
Loading historical data...
Other satellites on launch #56 in the year 2022 (2022-05-20 UTC)

Documentation

Showing up to 5 results
|